Location: *
(57.8420°S, 159.8600°W)
Time: 03:47:33
(UTC+00:00)

Cosmos 2058 - Pass Details

Date: 18 May 2021
Orbit: 561 x 584 km, 82.5° (Epoch: 20 June)

Event Time Altitude Azimuth Distance (km) Brightness Sun altitude
Rises 04:32:48 0° 343° (NNW) 2,779 6.8 -16.1°
Reaches altitude 10° 04:34:58 10° 341° (NNW) 1,892 5.9 -16.4°
Maximum altitude 04:39:09 73° 256° (WSW) 617 3.1 -16.9°
Drops below altitude 10° 04:43:25 10° 170° (S) 1,931 5.4 -17.5°
Enters shadow 04:44:34 - 168° (SSE) 2,394 5.9 -17.6°
